Location: Coupvray
(48.8929°N, 2.7967°E)
Time: 21:04:52
(UTC+00:00)

ARIANE 5 R/B - Pass Details

Date: 14 July 2020
Orbit: 749 x 794 km, 98.6° (Epoch: 14 August)

Event Time Altitude Azimuth Distance (km) Brightness Sun altitude
Rises 02:50:10 0° 14° (NNE) 3,235 7.0 -9.4°
Reaches altitude 10° 02:52:28 10° 15° (NNE) 2,311 6.1 -9.1°
Maximum altitude 02:57:34 89° 99° (E) 778 2.6 -8.6°
Drops below altitude 10° 03:02:43 10° 196° (SSW) 2,324 4.5 -8.0°
Enters shadow 03:03:30 - 196° (SSW) 2,637 4.7 -7.9°
